GW4807 Weather Reports


Display with metric or nautical units.
time (UTC)temp
F
wind
direction
speed
MPH
gust
MPH
rain 1hr
in
rain 24hr
in
rain mn
in
humidity
%
barometer
mb
20260906044323 75 124 0.0 0.0 0.00 0.00 0.00 85 1008.8
20260906043819 75 123 0.0 0.0 0.00 0.00 0.00 84 1008.7
20260906043314 75 124 0.0 0.0 0.00 0.00 0.00 84 1008.8
20260906042809 76 124 0.0 0.0 0.00 0.00 0.00 83 1008.6
20260906042308 76 126 0.0 0.0 0.00 0.00 0.00 83 1008.5
20260906041803 76 124 0.0 0.0 0.00 0.00 0.00 82 1008.6
20260906041253 76 124 0.0 0.0 0.00 0.00 0.00 82 1008.5
20260906040748 76 126 0.0 0.0 0.00 0.00 0.00 82 1008.6
20260906040243 77 123 0.0 0.0 0.00 0.00 0.00 82 1008.7
20260906035739 77 123 0.0 0.0 0.00 0.00 0.00 81 1008.6
20260906035235 77 124 0.0 0.0 0.00 0.00 0.00 81 1008.7
20260906034734 77 123 0.0 0.0 0.00 0.00 0.00 81 1008.4
20260906034229 77 124 0.0 0.0 0.00 0.00 0.00 81 1008.6
20260906033725 77 125 0.0 0.0 0.00 0.00 0.00 81 1008.4
20260906033224 77 124 0.0 0.0 0.00 0.00 0.00 80 1008.5
20260906032721 77 123 0.0 0.0 0.00 0.00 0.00 80 1008.4
20260906032221 77 125 0.0 0.0 0.00 0.00 0.00 79 1008.6
20260906031716 77 125 0.0 0.0 0.00 0.00 0.00 78 1008.1
20260906031212 78 126 0.0 0.0 0.00 0.00 0.00 78 1008.4
20260906030711 78 126 0.0 0.0 0.00 0.00 0.00 77 1008.4
20260906030207 78 126 0.0 0.0 0.00 0.00 0.00 76 1008.2
20260906025706 78 130 0.0 0.0 0.00 0.00 0.00 76 1008.0
20260906025206 78 126 0.0 0.0 0.00 0.00 0.00 75 1008.0
20260906024700 79 125 0.0 0.0 0.00 0.00 0.00 75 1008.1
20260906024159 79 124 0.0 0.0 0.00 0.00 0.00 74 1007.9
20260906023655 79 124 0.0 0.0 0.00 0.00 0.00 73 1008.1
20260906023155 80 124 0.0 0.0 0.00 0.00 0.00 72 1007.9
20260906022650 80 126 0.0 0.0 0.00 0.00 0.00 72 1008.0
20260906022146 80 124 0.0 0.0 0.00 0.00 0.00 71 1007.7
20260906021642 81 126 0.0 0.0 0.00 0.00 0.00 70 1007.7
20260906021140 81 129 0.0 0.0 0.00 0.00 0.00 70 1007.8
20260906020635 81 127 0.0 0.0 0.00 0.00 0.00 69 1007.5
20260906020130 82 130 0.0 0.0 0.00 0.00 0.00 67 1007.4
20260906015624 82 123 0.0 0.0 0.00 0.00 0.00 67 1007.4
20260906015122 82 127 0.0 0.0 0.00 0.00 0.00 65 1007.4
20260906014617 83 126 0.0 0.0 0.00 0.00 0.00 65 1007.4
20260906014114 83 130 0.0 0.0 0.00 0.00 0.00 64 1007.1
20260906013609 83 132 0.0 0.0 0.00 0.00 0.00 64 1007.4
20260906013104 84 126 0.0 0.0 0.00 0.00 0.00 63 1007.1
20260906012559 84 123 0.0 0.0 0.00 0.00 0.00 62 1007.1
20260906012059 84 134 0.0 1.0 0.00 0.00 0.00 62 1007.0
20260906011555 84 134 0.0 0.0 0.00 0.00 0.00 62 1007.4
20260906011054 84 123 0.0 0.0 0.00 0.00 0.00 62 1007.0
20260906010550 84 145 1.0 1.0 0.00 0.00 0.00 62 1007.0
20260906010046 84 152 1.0 1.0 0.00 0.00 0.00 61 1006.9
20260906005545 85 129 0.0 0.0 0.00 0.00 0.00 60 1006.6
20260906005044 86 127 0.0 0.0 0.00 0.00 0.00 59 1006.8
20260906004538 86 126 0.0 0.0 0.00 0.00 0.00 58 1006.8
20260906004034 87 132 0.0 1.0 0.00 0.00 0.00 57 1006.8
20260906003528 88 148 1.0 2.0 0.00 0.00 0.00 55 1006.9
20260906003024 89 129 0.0 0.0 0.00 0.00 0.00 53 1007.0
20260906002519 90 73 1.0 1.0 0.00 0.00 0.00 51 1007.0
20260906002014 90 129 0.0 0.0 0.00 0.00 0.00 50 1006.6
20260906001509 91 131 0.0 1.0 0.00 0.00 0.00 50 1007.1
20260906001003 92 123 0.0 0.0 0.00 0.00 0.00 49 1007.0
20260906000500 92 123 0.0 1.0 0.00 0.00 0.00 48 1007.0
20260905235959 93 118 1.0 1.0 0.00 0.00 0.00 47 1006.9
20260905235453 93 113 1.0 1.0 0.00 0.00 0.00 47 1007.1
20260905234948 93 118 0.0 0.0 0.00 0.00 0.00 47 1006.9
20260905234445 93 112 0.0 0.0 0.00 0.00 0.00 46 1007.0
20260905233944 94 98 2.0 2.0 0.00 0.00 0.00 46 1006.9
20260905233440 95 115 0.0 0.0 0.00 0.00 0.00 45 1006.7
20260905232938 95 108 1.0 1.0 0.00 0.00 0.00 45 1006.8
20260905232435 95 86 0.0 1.0 0.00 0.00 0.00 45 1007.0
20260905231930 95 112 0.0 0.0 0.00 0.00 0.00 45 1006.9
20260905231426 96 77 2.0 2.0 0.00 0.00 0.00 44 1006.7
20260905230922 96 119 2.0 2.0 0.00 0.00 0.00 44 1006.6
20260905230415 96 114 1.0 1.0 0.00 0.00 0.00 44 1006.5
20260905225913 96 125 1.0 1.0 0.00 0.00 0.00 43 1006.6
20260905225408 97 95 1.0 1.0 0.00 0.00 0.00 42 1006.6
20260905224903 97 123 0.0 0.0 0.00 0.00 0.00 43 1006.5
20260905224359 96 123 1.0 1.0 0.00 0.00 0.00 43 1007.0
20260905223853 97 73 4.0 6.0 0.00 0.00 0.00 42 1006.5
20260905223351 97 123 1.0 2.0 0.00 0.00 0.00 42 1006.5
20260905222846 96 119 1.0 1.0 0.00 0.00 0.00 42 1006.6
20260905222344 97 69 5.0 6.0 0.00 0.00 0.00 40 1006.6
20260905221840 97 88 2.0 2.0 0.00 0.00 0.00 41 1006.6
20260905221337 97 86 2.0 2.0 0.00 0.00 0.00 41 1006.5
20260905220833 98 86 2.0 2.0 0.00 0.00 0.00 40 1006.7
20260905220329 98 95 3.0 3.0 0.00 0.00 0.00 40 1006.8
20260905215827 100 84 1.0 2.0 0.00 0.00 0.00 38 1006.6
20260905215323 102 95 1.0 2.0 0.00 0.00 0.00 36 1006.4
20260905214820 104 111 1.0 2.0 0.00 0.00 0.00 33 1006.4
20260905214315 105 259 2.0 3.0 0.00 0.00 0.00 31 1006.5
20260905213810 107 187 2.0 2.0 0.00 0.00 0.00 30 1006.4
20260905213307 106 223 2.0 2.0 0.00 0.00 0.00 30 1006.3
20260905212806 105 166 2.0 3.0 0.00 0.00 0.00 31 1006.6
20260905212301 105 202 2.0 3.0 0.00 0.00 0.00 32 1006.5
20260905211801 107 214 3.0 3.0 0.00 0.00 0.00 30 1006.3
20260905211256 109 164 2.0 2.0 0.00 0.00 0.00 30 1006.6
20260905210753 108 166 3.0 3.0 0.00 0.00 0.00 29 1006.6
20260905210252 107 112 0.0 0.0 0.00 0.00 0.00 30 1006.9
20260905205751 106 134 1.0 2.0 0.00 0.00 0.00 31 1006.6
20260905205246 105 137 1.0 1.0 0.00 0.00 0.00 32 1006.7
20260905204745 105 108 2.0 3.0 0.00 0.00 0.00 31 1007.0
20260905204241 105 133 3.0 3.0 0.00 0.00 0.00 33 1007.1
20260905203740 105 153 1.0 2.0 0.00 0.00 0.00 31 1007.0
20260905203236 104 145 3.0 3.0 0.00 0.00 0.00 32 1007.1
20260905202731 105 134 0.0 0.0 0.00 0.00 0.00 31 1007.2
20260905202227 107 122 0.0 0.0 0.00 0.00 0.00 30 1007.2
20260905201723 108 156 1.0 2.0 0.00 0.00 0.00 31 1007.3
20260905201222 107 137 0.0 1.0 0.00 0.00 0.00 30 1007.2
20260905200718 106 153 2.0 2.0 0.00 0.00 0.00 31 1007.3
20260905200213 108 173 2.0 2.0 0.00 0.00 0.00 29 1007.5
20260905195711 107 144 1.0 1.0 0.00 0.00 0.00 31 1007.4
20260905195206 106 128 1.0 1.0 0.00 0.00 0.00 31 1007.5
20260905194702 105 161 2.0 3.0 0.00 0.00 0.00 32 1007.6
20260905194155 104 117 1.0 1.0 0.00 0.00 0.00 32 1007.9
20260905193650 104 141 1.0 1.0 0.00 0.00 0.00 32 1007.5
20260905193144 105 76 1.0 2.0 0.00 0.00 0.00 32 1007.8
20260905192635 105 115 2.0 2.0 0.00 0.00 0.00 32 1007.9
20260905192131 104 132 0.0 0.0 0.00 0.00 0.00 33 1008.0
20260905191631 102 144 1.0 1.0 0.00 0.00 0.00 34 1008.1
20260905191129 104 131 1.0 2.0 0.00 0.00 0.00 33 1008.4
20260905190627 104 136 0.0 0.0 0.00 0.00 0.00 34 1008.1
20260905190126 102 128 0.0 0.0 0.00 0.00 0.00 35 1008.5
20260905185625 102 112 1.0 1.0 0.00 0.00 0.00 36 1008.6
20260905185120 102 129 1.0 1.0 0.00 0.00 0.00 34 1008.7
20260905184614 102 137 0.0 0.0 0.00 0.00 0.00 36 1008.5
20260905184113 101 108 1.0 1.0 0.00 0.00 0.00 37 1008.7
20260905183612 101 120 2.0 2.0 0.00 0.00 0.00 37 1009.0
20260905183108 102 124 1.0 2.0 0.00 0.00 0.00 36 1008.8
20260905182607 101 93 2.0 2.0 0.00 0.00 0.00 36 1008.9
20260905182102 100 126 0.0 1.0 0.00 0.00 0.00 37 1009.1
20260905181602 100 76 1.0 1.0 0.00 0.00 0.00 39 1009.1
20260905181101 100 91 2.0 2.0 0.00 0.00 0.00 39 1008.9
20260905180556 101 95 0.0 1.0 0.00 0.00 0.00 40 1009.1
20260905180051 100 130 0.0 1.0 0.00 0.00 0.00 42 1009.2
20260905175550 100 102 1.0 1.0 0.00 0.00 0.00 40 1009.1
20260905175046 99 108 1.0 2.0 0.00 0.00 0.00 41 1009.5
20260905174542 99 124 3.0 3.0 0.00 0.00 0.00 41 1009.4
20260905174037 99 142 0.0 0.0 0.00 0.00 0.00 41 1009.6
20260905173534 100 143 2.0 2.0 0.00 0.00 0.00 40 1009.6
20260905173029 99 127 2.0 2.0 0.00 0.00 0.00 42 1009.6
20260905172527 99 71 3.0 3.0 0.00 0.00 0.00 42 1009.6
20260905172023 99 202 3.0 3.0 0.00 0.00 0.00 41 1009.6
20260905171519 98 114 1.0 1.0 0.00 0.00 0.00 42 1009.7
20260905171015 98 114 1.0 1.0 0.00 0.00 0.00 43 1009.7
20260905170512 98 95 1.0 2.0 0.00 0.00 0.00 45 1009.8
20260905170007 97 104 3.0 3.0 0.00 0.00 0.00 45 1009.8
20260905165501 96 127 0.0 0.0 0.00 0.00 0.00 46 1009.7
20260905164956 96 74 2.0 5.0 0.00 0.00 0.00 46 1009.6
20260905164455 96 97 4.0 6.0 0.00 0.00 0.00 46 1009.9
20260905163950 96 258 3.0 3.0 0.00 0.00 0.00 48 1009.9
20260905163447 96 97 1.0 1.0 0.00 0.00 0.00 47 1010.1
20260905162942 96 150 1.0 1.0 0.00 0.00 0.00 47 1010.2
20260905162437 96 111 2.0 3.0 0.00 0.00 0.00 47 1010.4
20260905161933 96 78 3.0 3.0 0.00 0.00 0.00 47 1010.0
20260905161432 95 175 1.0 2.0 0.00 0.00 0.00 49 1010.2
20260905160930 95 143 2.0 2.0 0.00 0.00 0.00 48 1010.0
20260905160424 95 104 1.0 1.0 0.00 0.00 0.00 48 1010.2
20260905155918 95 124 0.0 0.0 0.00 0.00 0.00 51 1010.2
20260905155418 94 112 1.0 1.0 0.00 0.00 0.00 50 1010.1
20260905154917 94 120 1.0 2.0 0.00 0.00 0.00 51 1010.3
20260905154413 93 120 1.0 2.0 0.00 0.00 0.00 52 1010.3
20260905153908 92 122 1.0 1.0 0.00 0.00 0.00 55 1010.1
20260905153404 92 133 0.0 1.0 0.00 0.00 0.00 55 1010.3
20260905152904 92 215 4.0 5.0 0.00 0.00 0.00 56 1010.2
20260905152403 91 136 1.0 1.0 0.00 0.00 0.00 58 1010.1
20260905151858 91 175 3.0 3.0 0.00 0.00 0.00 58 1010.0
20260905151355 90 133 1.0 1.0 0.00 0.00 0.00 59 1010.1
20260905150854 89 161 1.0 1.0 0.00 0.00 0.00 61 1010.2
20260905150349 89 165 3.0 5.0 0.00 0.00 0.00 62 1010.0
20260905145846 89 237 2.0 2.0 0.00 0.00 0.00 62 1010.2
20260905145340 88 157 1.0 1.0 0.00 0.00 0.00 63 1009.9
20260905144834 87 143 1.0 1.0 0.00 0.00 0.00 64 1010.0
20260905144330 87 157 3.0 3.0 0.00 0.00 0.00 66 1009.9
20260905143828 86 143 1.0 2.0 0.00 0.00 0.00 67 1009.8
20260905143322 86 145 0.0 1.0 0.00 0.00 0.00 68 1010.0
20260905142821 86 123 0.0 1.0 0.00 0.00 0.00 69 1009.9
20260905142316 84 116 0.0 0.0 0.00 0.00 0.00 72 1010.0
20260905141812 84 94 1.0 1.0 0.00 0.00 0.00 72 1010.1
20260905141307 83 87 1.0 2.0 0.00 0.00 0.00 73 1010.1
20260905140802 83 108 2.0 2.0 0.00 0.00 0.00 74 1010.0
20260905140302 82 129 0.0 0.0 0.00 0.00 0.00 74 1010.2
20260905135800 82 127 0.0 0.0 0.00 0.00 0.00 75 1010.2
20260905135257 82 147 1.0 2.0 0.00 0.00 0.00 75 1010.3
20260905134757 82 131 0.0 1.0 0.00 0.00 0.00 75 1010.1
20260905134250 82 144 1.0 1.0 0.00 0.00 0.00 74 1010.0
20260905133745 82 133 1.0 1.0 0.00 0.00 0.00 74 1010.1
20260905133240 81 134 1.0 1.0 0.00 0.00 0.00 77 1009.9
20260905132739 80 142 1.0 2.0 0.00 0.00 0.00 77 1009.8
20260905132230 80 121 0.0 0.0 0.00 0.00 0.00 79 1009.9
20260905131724 80 119 1.0 1.0 0.00 0.00 0.00 79 1009.9
20260905131220 78 121 0.0 0.0 0.00 0.00 0.00 83 1009.7
20260905130720 77 122 0.0 0.0 0.00 0.00 0.00 87 1009.8
20260905130219 74 121 0.0 0.0 0.00 0.00 0.00 93 1009.8
20260905125714 72 125 0.0 0.0 0.00 0.00 0.00 95 1009.7
20260905125209 71 124 0.0 0.0 0.00 0.00 0.00 97 1010.0
20260905124706 71 120 0.0 0.0 0.00 0.00 0.00 99 1009.7
20260905124201 69 121 0.0 0.0 0.00 0.00 0.00 99 1009.8
20260905123656 69 126 0.0 0.0 0.00 0.00 0.00 99 1009.6
20260905123154 68 128 0.0 1.0 0.00 0.00 0.00 99 1009.7
20260905122653 68 124 0.0 0.0 0.00 0.00 0.00 99 1009.7
20260905122148 68 124 0.0 0.0 0.00 0.00 0.00 99 1009.6
20260905121642 68 123 0.0 0.0 0.00 0.00 0.00 99 1009.5
20260905121138 68 125 0.0 0.0 0.00 0.00 0.00 99 1009.3
20260905120637 68 125 0.0 0.0 0.00 0.00 0.00 99 1009.6
20260905120132 67 125 0.0 0.0 0.00 0.00 0.00 99 1009.5
20260905115631 67 123 0.0 0.0 0.00 0.00 0.00 99 1009.4
20260905115126 67 123 0.0 0.0 0.00 0.00 0.00 99 1009.4
20260905114626 68 123 0.0 0.0 0.00 0.00 0.00 99 1009.5
20260905114125 68 123 0.0 0.0 0.00 0.00 0.00 99 1009.3
20260905113620 68 123 0.0 0.0 0.00 0.00 0.00 99 1009.5
20260905113115 68 123 0.0 0.0 0.00 0.00 0.00 99 1009.4
20260905112609 68 123 0.0 0.0 0.00 0.00 0.00 99 1009.3
20260905112105 68 123 0.0 0.0 0.00 0.00 0.00 99 1009.4
20260905111600 68 123 0.0 0.0 0.00 0.00 0.00 99 1009.3
20260905111059 68 123 0.0 0.0 0.00 0.00 0.00 99 1009.3
20260905110558 68 123 0.0 0.0 0.00 0.00 0.00 99 1009.6
20260905110054 68 124 0.0 0.0 0.00 0.00 0.00 99 1009.5
20260905105548 68 125 0.0 0.0 0.00 0.00 0.00 99 1009.4
20260905105047 68 125 0.0 0.0 0.00 0.00 0.00 99 1009.5
20260905104543 68 125 0.0 0.0 0.00 0.00 0.00 99 1009.5
20260905104043 68 125 0.0 0.0 0.00 0.00 0.00 99 1009.5
20260905103533 68 125 0.0 0.0 0.00 0.00 0.00 99 1009.4
20260905103029 68 125 0.0 0.0 0.00 0.00 0.00 99 1009.3
20260905102524 68 125 0.0 0.0 0.00 0.00 0.00 99 1009.3
20260905102021 68 125 0.0 0.0 0.00 0.00 0.00 99 1009.3
20260905101519 68 125 0.0 0.0 0.00 0.00 0.00 99 1009.2
20260905101017 68 125 0.0 0.0 0.00 0.00 0.00 99 1009.4
20260905100514 68 125 0.0 0.0 0.00 0.00 0.00 99 1009.4
20260905100013 68 125 0.0 0.0 0.00 0.00 0.00 99 1009.5
20260905095508 68 125 0.0 0.0 0.00 0.00 0.00 99 1009.4
20260905095002 68 125 0.0 0.0 0.00 0.00 0.00 99 1009.1
20260905094458 68 125 0.0 0.0 0.00 0.00 0.00 99 1009.4
20260905093957 69 125 0.0 0.0 0.00 0.00 0.00 98 1009.3
20260905093452 69 125 0.0 0.0 0.00 0.00 0.00 98 1009.4
20260905092948 69 124 0.0 0.0 0.00 0.00 0.00 98 1009.3
20260905092443 69 123 0.0 0.0 0.00 0.00 0.00 98 1009.2
20260905091938 69 123 0.0 0.0 0.00 0.00 0.00 98 1009.1
20260905091432 69 125 0.0 0.0 0.00 0.00 0.00 98 1009.1
20260905090931 69 125 0.0 0.0 0.00 0.00 0.00 97 1009.2
20260905090427 69 125 0.0 0.0 0.00 0.00 0.00 97 1009.2
20260905085926 69 125 0.0 0.0 0.00 0.00 0.00 97 1009.3
20260905085420 69 125 0.0 0.0 0.00 0.00 0.00 97 1009.2
20260905084917 69 125 0.0 0.0 0.00 0.00 0.00 97 1009.1
20260905084416 69 125 0.0 0.0 0.00 0.00 0.00 97 1008.9
20260905083911 69 125 0.0 0.0 0.00 0.00 0.00 97 1008.9
20260905083406 69 124 0.0 0.0 0.00 0.00 0.00 96 1008.9
20260905082902 69 124 0.0 0.0 0.00 0.00 0.00 96 1008.8
20260905082357 69 125 0.0 0.0 0.00 0.00 0.00 96 1009.0
20260905081852 70 125 0.0 0.0 0.00 0.00 0.00 96 1008.9
20260905081347 70 125 0.0 0.0 0.00 0.00 0.00 96 1009.0
20260905080846 70 124 0.0 0.0 0.00 0.00 0.00 95 1008.8
20260905080341 70 124 0.0 0.0 0.00 0.00 0.00 95 1009.0
20260905075839 70 123 0.0 0.0 0.00 0.00 0.00 95 1009.0
20260905075333 70 123 0.0 0.0 0.00 0.00 0.00 95 1009.2
20260905074833 70 123 0.0 0.0 0.00 0.00 0.00 94 1009.1
20260905074329 70 123 0.0 0.0 0.00 0.00 0.00 94 1008.9
20260905073824 70 123 0.0 0.0 0.00 0.00 0.00 94 1009.0
20260905073319 71 123 0.0 0.0 0.00 0.00 0.00 94 1009.3
20260905072814 71 123 0.0 0.0 0.00 0.00 0.00 94 1009.1
20260905072309 71 124 0.0 0.0 0.00 0.00 0.00 94 1009.3
20260905071805 71 123 0.0 0.0 0.00 0.00 0.00 93 1009.1
20260905071256 71 124 0.0 0.0 0.00 0.00 0.00 93 1009.1
20260905070750 71 125 0.0 0.0 0.00 0.00 0.00 93 1009.2
20260905070247 71 125 0.0 0.0 0.00 0.00 0.00 93 1009.3
20260905065745 71 125 0.0 0.0 0.00 0.00 0.00 92 1009.3
20260905065238 71 125 0.0 0.0 0.00 0.00 0.00 92 1009.2
20260905064733 71 125 0.0 0.0 0.00 0.00 0.00 92 1009.3
20260905064229 71 124 0.0 0.0 0.00 0.00 0.00 92 1009.4
20260905063728 72 124 0.0 0.0 0.00 0.00 0.00 91 1009.5
20260905063224 72 124 0.0 0.0 0.00 0.00 0.00 91 1009.4
20260905062720 72 124 0.0 0.0 0.00 0.00 0.00 91 1009.4
20260905062219 72 124 0.0 0.0 0.00 0.00 0.00 91 1009.2
20260905061713 72 125 0.0 0.0 0.00 0.00 0.00 91 1009.4
20260905061208 72 125 0.0 0.0 0.00 0.00 0.00 90 1009.3
20260905060703 72 125 0.0 0.0 0.00 0.00 0.00 90 1009.3
20260905060200 72 123 0.0 0.0 0.00 0.00 0.00 90 1009.6
20260905055658 72 125 0.0 0.0 0.00 0.00 0.00 89 1009.3
20260905055153 73 125 0.0 0.0 0.00 0.00 0.00 89 1009.3
20260905054649 73 125 0.0 0.0 0.00 0.00 0.00 89 1009.4
20260905054144 73 125 0.0 0.0 0.00 0.00 0.00 89 1009.3
20260905053644 73 125 0.0 0.0 0.00 0.00 0.00 88 1009.5
20260905053139 73 125 0.0 0.0 0.00 0.00 0.00 88 1009.3
20260905052639 73 125 0.0 0.0 0.00 0.00 0.00 87 1009.2
20260905052133 74 125 0.0 0.0 0.00 0.00 0.00 86 1009.3
20260905051629 74 123 0.0 0.0 0.00 0.00 0.00 86 1009.2
20260905051125 74 125 0.0 0.0 0.00 0.00 0.00 86 1009.3
20260905050621 74 128 0.0 0.0 0.00 0.00 0.00 86 1009.0
20260905050113 74 125 0.0 0.0 0.00 0.00 0.00 86 1009.3
20260905045612 74 125 0.0 0.0 0.00 0.00 0.00 86 1009.3
20260905045108 74 125 0.0 0.0 0.00 0.00 0.00 85 1009.0
20260905044607 74 125 0.0 0.0 0.00 0.00 0.00 85 1009.3